{"data":{"norad_id":56818,"intl_designator":"2023-078BD","name":"STARLINK-6028","alt_names":[],"object_type":"PAYLOAD","status":"ACTIVE","operator":null,"country":"US","launch_date":"2023-05-31","launch_site_code":"AFWTR","launch_vehicle":null,"mission":null,"orbit_class":"UNKNOWN","rcs_meters":null,"size_class":null,"mass_kg":null,"dimensions":null,"purposes":["comms"],"wikipedia_slug":null,"has_3d_model":false,"image_url":null,"decayed_at":null,"tle_current":{"epoch":"2026-05-25T02:57:42.909120Z","epoch_age_seconds":67954,"freshness":"FRESH","line1":"1 56818U 23078BD  26145.12341330  .00003451  00000+0  29684-3 0  9997","line2":"2 56818  70.0000 151.5615 0003264 268.6547  91.4238 14.98332684164820","mean_motion":14.98332684,"eccentricity":0.0003264,"inclination_deg":70,"raan_deg":151.5615,"arg_perigee_deg":268.6547,"mean_anomaly_deg":91.4238,"bstar":0.00029684,"rev_number":16482,"period_min":96.106826966874,"perigee_km":569.77905065774,"apogee_km":574.31613115868,"semimajor_km":6950.1845909082,"source":"CELESTRAK","updated_at":"2026-05-25T13:38:18.161659Z"}}}